Regional Weather Roundup
Issued by NWS

Home | Current Version | Previous Version | Text Only | Print | Product List | Glossary Off
Versions: 1 2 3 4 5 6 7 8 9 10 11 12 13 14 15 16 17 18 19 20 21 22 23 24 25 26 27 28 29 30 31 32 33 34 35 36 37 38 39 40 41 42 43 44 45 46 47 48 49 50

000
ASUS43 KIND 070359
RWRIN

WEATHER ROUNDUP FOR INDIANA
NATIONAL WEATHER SERVICE INDIANAPOLIS IN
1100 PM EST FRI MAR 06 2015

NOTE: "FAIR" INDICATES FEW OR NO CLOUDS BELOW 12,000 FEET WITH NO
SIGNIFICANT WEATHER AND/OR OBSTRUCTIONS TO VISIBILITY.

* - STATION DOES NOT REPORT WEATHER SUCH AS PRECIPITATION OR FOG.

+ - STATION NOT QUALITY CONTROLLED BY THE NATIONAL WEATHER SERVICE.
    USE DATA WITH CAUTION...ESPECIALLY DEWPOINT AND RELATIVE
    HUMIDITY OBSERVATIONS.

INZ001>003-010>013-019-020-070500-
NORTHWEST INDIANA

CITY           SKY/WX    TMP DP  RH WIND       PRES   REMARKS
GARY /AIRPORT/ CLEAR     25  10  54 SW20      30.20S WCI  11
MONTICELLO +   CLEAR     22  12  64 S15G21    30.24F WCI   9
VALPARAISO     NOT AVBL

$$

LMZ046-743>745-070500-
SOUTHERN LAKE MICHIGAN

STATION/POSITION TIME  TEMP WIND        PRES
                       AIR  DIR/SP/G
                 (UTC) (F)  (DEG/KT/KT) (MB)
MICHIGAN CITY    0300   24  170/ 17/ 23   N/A

$$

INZ004-005-014>016-021>024-070500-
NORTH CENTRAL INDIANA

CITY           SKY/WX    TMP DP  RH WIND       PRES   REMARKS
GOSHEN         CLEAR     20  10  65 SW12      30.20F WCI   8
SOUTH BEND     CLEAR     22  11  62 SW16      30.20S WCI   8

$$

INZ006>009-017-018-025>027-070500-
NORTHEAST INDIANA

CITY           SKY/WX    TMP DP  RH WIND       PRES   REMARKS
ANGOLA *+      CLEAR     19  10  68 SW12      30.19F WCI   7
FORT WAYNE     CLEAR     18  10  71 SW12      30.25F WCI   5

$$

INZ028-029-035-036-043>045-051>053-070500-
WEST CENTRAL INDIANA

CITY           SKY/WX    TMP DP  RH WIND       PRES   REMARKS
CRAWFORDSVL +  CLEAR     20   6  55 S14       30.29S WCI   7
GREENCASTLE +  CLEAR     25   7  46 SW10      30.31S WCI  15
LAFAYETTE      CLEAR     21  10  62 SW7       30.27F WCI  12
TERRE HAUTE    CLEAR     22  10  60 S10       30.34S WCI  11

$$

INZ030>032-037>040-046>048-054>057-064-065-070500-
CENTRAL INDIANA

CITY           SKY/WX    TMP DP  RH WIND       PRES   REMARKS
GREENWOOD *+   CLEAR     23   3  42 SW9       30.32S WCI  13
INDIANAPOLIS   CLEAR     23   9  55 SW14      30.30S WCI  11
-EAGLE CREEK   CLEAR     24   7  48 SW12G18   30.30S WCI  13
KOKOMO *+        N/A    N/A N/A N/A MISG        N/A
MT COMFORT *+  CLEAR     21   0  39 S8        30.31S WCI  12
SHELBYVILLE    CLEAR     24  13  62 S13       30.32S WCI  12

$$

INZ033-034-041-042-049-050-058-059-070500-
EAST CENTRAL INDIANA

CITY           SKY/WX    TMP DP  RH WIND       PRES   REMARKS
MUNCIE         CLEAR     25  10  53 SW14      30.27F WCI  13

$$

INZ060-061-067>069-081>083-085>088-070500-
SOUTHWEST INDIANA

CITY           SKY/WX    TMP DP  RH WIND       PRES   REMARKS
EVANSVILLE     CLEAR     27  11  51 SW10      30.41F WCI  17
HUNTINGBURG *+ CLEAR     25   9  50 S9        30.40F WCI  15

$$

INZ062-063-066-070>080-084-089>092-070500-
SOUTH CENTRAL AND SOUTHEAST INDIANA

CITY           SKY/WX    TMP DP  RH WIND       PRES   REMARKS
BLOOMINGTON    CLEAR     26   9  48 SW15      30.33F WCI  14
SEYMOUR +      CLEAR     25  12  58 S5        30.38S WCI  19

$$




USA.gov is the U.S. government's official web portal to all federal, state and local government web resources and services.